GLOBALSTAR M023 [P]

Last updated on May 4, 2016, 7:38 a.m. UTC

1 25621U 99004A   16125.19708119 -.00000083  00000-0  11371-3 0  9997
2 25621  52.0092 114.4597 0009816 329.2532 111.6753 12.62336378795115
UTC
Height (km)
Latitude
Longitude
Inclination
Orbital Period
UTC large
Height (km)
Speed (km/s)
/
Latitude / Longitude
Inclination (degrees)
Orbital Period (minutes)
Azimuth
Elevation
Range (km)
Doppler Factor
iOS Compass Heading
iOS Angle